Showing default

COSMOS 1461, 14064

Orbit data source: Space-Track

COSMOS 1461, 14064 is a payload satellite owned by VMF (CIS) in LEO that was launched on Sat, 07 May 1983 UTC via a TSIKLON-2 launch vehicle from the Tyuratam Missile And Space Complex (TTMTR). Payload-class satellites include a variety of spacecraft equipped with specific instruments for various scientific and technological missions. These include communications satellites like Starlink; space stations such as the ISS; scientific satellites like the Hubble; Earth observation satellites from companies like Planet Labs, Umbra, and HawkEye 360; GPS; miniature CubeSats for education and research; and military/defense satellites.

Loading next visibility...
Identifier
14064, 1983-044A
Orbit
LEO
Last TLE update
21 hours ago
Origin
Manufacturer
TSSKB/KOMET
Mission
Defense Sigint
Bus & Motor
US-P, Unknown motor
Mass
3,300 kg wet, ~3,000 kg dry
Launch date (UTC)
1983-05-07 (42 years ago)
Launch vehicle
TSIKLON-2
Launch site
Tyuratam Missile And Space Complex (TTMTR)
Object type
Payload
Rocket body
Debris
Shape & HBR
Cyl, 10 m
Radar Cross Section
10.874 m², Large (>1 m²)

Expand to show TLE details & history

TLE from 21 hours ago
0 COSMOS 1461
1 14064U 83044A   25187.11225749  .00011753  00000-0  45775-3 0  9996
2 14064  64.9924 106.1794 0070406 303.2769  56.1629 15.24024148164153
Epoch: 2025-07-06T02:41Z
TLE epoch observation values (Epoch: 2025-07-06T02:41:39.047Z)
Latitude
0.00001°
Longitude
141.42609°
Altitude
469.066 km
Speed
7.647 km/s
True Right ascension
07h 04m 43s
True Declination
0° 00' 00"
Sunlit
Object was in daylight at epoch
Visualization orbit readout
Latitude
2.53295°
Longitude
-42.62116°
Altitude
523.486 km
Speed
7.587 km/s
Apparent Right ascension
20h 52m 07s
Apparent Declination
-22° 03' 01"
Sunlit
Object is in full shadow
Visualization observer readout
Local Sidereal Time
11:57:15
Azimuth
79.59° E
Elevation
-47.07°
Doppler factor
1
Orbital elements
Apogee altitude
540.607 km
Perigee altitude
443.864 km
Semi-major axis
6,870.372 km
Eccentricity
0.00704
Inclination
64.9924°
RAAN
106.1794°
Arg. of periapsis
303.2769°
True anomaly
Unknown
Mean anomaly
56.1629°
Eccentric anomaly
Unknown
Mean motion
3.8113 °/min
Orbital period
94.46 mins
BSTAR
0.00045775
Loading maneuver chart data...
Loading SW <> Apogee altitude chart data...

COSMOS 1461 Visibility forecast

Observer location: undefined°, undefined°

Span
Click to sort rows by Start time (UTC) header in descending order
Start Az.
Max El. time (UTC)
Max El. Az.
Max El.
End time (UTC)
End Az.
6 mins2025-07-07 04:24:52.165Z356.549° N2025-07-07 04:27:52.165Z56.048° ENE24.702°2025-07-07 04:30:52.165Z108.083° ESE
5 mins2025-07-07 06:02:52.165Z287.633° WNW2025-07-07 06:04:52.165Z243.704° WSW23.804°2025-07-07 06:07:52.165Z191.542° SSW
5 mins2025-07-07 19:47:52.165Z181.015° SSW2025-07-07 19:49:52.165Z107.754° ESE37.41°2025-07-07 19:52:52.165Z44.031° NE
|